Regional Weather Roundup
Issued by NWS

Home | Current Version | Previous Version | Graphics & Text | Print | Product List | Glossary On
Versions: 1 2 3 4 5 6 7 8 9 10 11 12 13 14 15 16 17 18 19 20 21 22 23 24 25 26 27 28 29 30 31 32 33 34 35 36 37 38 39 40 41 42 43 44 45 46 47 48 49 50
000
ASUS45 KTFX 042219
RWRMT
MONTANA REGIONAL WEATHER ROUNDUP
NATIONAL WEATHER SERVICE GREAT FALLS MT
400 PM MDT FRI SEP 04 2015

NOTE: "FAIR" INDICATES FEW OR NO CLOUDS BELOW 12000 FEET WITH NO
SIGNIFICANT WEATHER AND/OR OBSTRUCTIONS TO VISIBILITY.

MTZ001>007-043-042300-
WEST OF THE DIVIDE

CITY           SKY/WX    TMP DP  RH WIND       PRES   REMARKS
KALISPELL      MOCLDY    63  41  44 NE8       29.92F
MISSOULA       MOSUNNY   62  43  49 E13       29.92F
BUTTE          LGT RAIN  46  42  86 SW3       29.99F
MULLAN PASS    PTSUNNY   52  33  48 CALM      29.94F
DEER LODGE       N/A     48  46  93 CALM      30.01F
EUREKA           N/A     63  43  48 CALM      29.97F
HAMILTON         N/A     59  41  51 N5        29.89F
LIBBY            N/A     64  36  34 NW3       29.91F
PLAINS           N/A     69  39  33 E10       29.91F
RONAN            N/A     61  47  59 CALM      29.99F
THOMPSON FALLS   N/A     69  36  29 E13       29.91F
$$

MTZ008-052>055-042300-
SOUTHWEST MONTANA

CITY           SKY/WX    TMP DP  RH WIND       PRES   REMARKS
BOZEMAN        CLOUDY    59  46  62 W6        29.94S
DILLON         CLOUDY    54  41  61 N6        29.94F
W YELLOWSTONE  PTSUNNY   68  32  26 W16G24    29.90F
THREE FORKS      N/A     60  55  83 N2        29.96R
TWIN BRIDGES     N/A     58  40  51 N20       29.93F
$$

MTZ009-010-012-014-046-048-049-054-042300-
EAST SLOPES AND CENTRAL MONTANA

CITY           SKY/WX    TMP DP  RH WIND       PRES   REMARKS
CUT BANK       LGT RAIN  44  43  96 N16       30.04R FOG
GREAT FALLS    CLOUDY    51  49  92 NE8       29.99S
MALMSTROM AFB  CLOUDY    51  50  95 NE7       30.00S
HELENA         CLOUDY    55  44  66 NW7       29.98R
CONRAD           N/A     50  50 100 NE2       30.03S
$$

MTZ011-013-016-021-045-047-050-051-042300-
NORTH CENTRAL MONTANA

CITY           SKY/WX    TMP DP  RH WIND       PRES   REMARKS
HAVRE          CLOUDY    54  51  90 NE7       30.01R
LEWISTOWN      CLOUDY    59  45  59 N8        29.98R
N BAR RANCH      N/A     61  45  55 N13G18    29.98F
CHINOOK          N/A     55  52  88 N5        30.00S
FORT BENTON      N/A     54  48  82 NE3       30.02R
$$

MTZ017>020-022>027-061-062-042300-
NORTHEAST MONTANA

CITY           SKY/WX    TMP DP  RH WIND       PRES   REMARKS
GLASGOW        LGT RAIN  76  50  40 NE14      29.85F
JORDAN           N/A     71  50  47 N5        29.87F
SIDNEY         PTSUNNY   73  55  53 NE10        N/A
WOLF POINT     CLOUDY    74  52  46 E16       29.86S
MALTA            N/A     59  49  69 NW14      29.91F
PLENTYWOOD       N/A     66  48  52 NE18G24   29.89S
POPLAR           N/A     72  52  49 NE14G20   29.87S
SCOBEY           N/A     71  46  40 NE15      29.90S
$$

MTZ028>42-056>058-042300-
SOUTHCENTRAL AND SOUTHEAST MONTANA

CITY           SKY/WX    TMP DP  RH WIND       PRES   REMARKS
BAKER          MOSUNNY   77  59  53 VRB6      29.85S
BILLINGS       MOSUNNY   69  46  43 E12       29.88F
LIVINGSTON     PTSUNNY   63  44  50 E13       29.92S
MILES CITY     SUNNY     76  55  48 NE10      29.83F
EKALAKA          N/A     78  56  46 CALM      29.84F
FORSYTH          N/A     72  46  40 W7        29.84F
LAUREL           N/A     70  46  42 NE8       29.89F
ROUNDUP          N/A     62  44  51 N12       29.86S
$$

REGIONAL REPORTS...DAKOTAS

CITY           SKY/WX    TMP DP  RH WIND       PRES   REMARKS
WILLISTON      SUNNY     77  56  48 NE12      29.85F
MINOT          CLOUDY    70  60  70 NW16G25   29.83R
DICKINSON      MOSUNNY   77  64  64 NE9       29.82S
BEACH          CLOUDY    70  61  73 NE8       29.86S
CROSBY           N/A     68  54  60 NE13      29.89S
BISMARCK       SUNNY     87  67  51 VRB5      29.77S HX  90
GRAND FORKS    CLOUDY    79  67  66 S9        29.79S
FARGO          LGT RAIN  77  71  82 E5        29.81S
BUFFALO SD       N/A     87  57  35 VRB5      29.74F
RAPID CITY     SUNNY     90  57  32 N7        29.79F
$$

REGIONAL REPORTS...WYOMING/IDAHO/WASHINGTON

CITY           SKY/WX    TMP DP  RH WIND       PRES   REMARKS
GILLETTE       SUNNY     87  43  21 SE3       29.84F
SHERIDAN       SUNNY     83  47  28 N10       29.82F
BUFFALO WY     SUNNY     83  42  23 E7        29.87F
CODY           MOSUNNY   66  48  52 N16       29.88S
YELLOWSTONE LA   N/A     67  29  24 SW7       29.98F
IDAHO FALLS    MOSUNNY   77  40  26 CALM      29.78F
SALMON         CLOUDY    52  43  71 N3        29.89F
BOISE          MOSUNNY   72  40  31 VRB7      29.71F
SPOKANE        MOSUNNY   69  29  22 NE14      29.86F
$$

REGIONAL REPORTS...ALBERTA

CITY           SKY/WX    TMP DP  RH WIND       PRES   REMARKS
EDMONTON       CLOUDY    50  39  66 NW2       30.18S
CALGARY        LGT RAIN  41  39  93 N17       30.13S
LETHBRIDGE     LGT RAIN  48  46  93 NW13      30.05F
MEDICINE HAT   LGT RAIN  52  50  93 NE7G17    30.03F FOG
WATERTON GATE    N/A     43  39  87 NE8         N/A
CARDSTON         N/A     43  43 100 NW8         N/A
MILK RIVER       N/A     46  45  93 N13         N/A
ONEFOUR          N/A     50  48  93 E8          N/A
$$

REGIONAL REPORTS...SASKATCHEWAN

CITY           SKY/WX    TMP DP  RH WIND       PRES   REMARKS
SWIFT CURRENT  LGT RAIN  50  48  93 N9        30.05R
REGINA         PTSUNNY   64  43  45 N17G25    29.95F
SASKATOON      CLOUDY    59  41  51 N12       30.07F
CYPRESS HILLS    N/A     50  46  87 E5          N/A
VAL MARIE        N/A     52  50  93 N12         N/A
ROCKGLEN         N/A     61  46  59 N12G22      N/A
ASSINIBOIA       N/A     54  39  58 N8          N/A
$$



USA.gov is the U.S. government's official web portal to all federal, state and local government web resources and services.